| time (UTC) | temp C | wind direction | speed KPH | gust KPH | rain 1hr cm | rain 24hr cm | rain mn cm | humidity % | barometer mb |
| 20260505024551 | 19 | 186 | 0.0 | 14.5 | 0.00 | 0.00 | 0.00 | 53 | 1010.3 |
| 20260505024451 | 19 | 186 | 0.0 | 9.7 | 0.00 | 0.00 | 0.00 | 53 | 1010.4 |
| 20260505023051 | 19 | 145 | 8.0 | 11.3 | 0.00 | 0.00 | 0.00 | 53 | 1010.2 |
| 20260505021551 | 19 | 178 | 3.2 | 11.3 | 0.00 | 0.00 | 0.00 | 54 | 1010.3 |
| 20260505020051 | 19 | 155 | 1.6 | 11.3 | 0.00 | 0.00 | 0.00 | 53 | 1010.1 |
| 20260505014550 | 19 | 133 | 6.4 | 11.3 | 0.00 | 0.00 | 0.00 | 53 | 1010.1 |
| 20260505014505 | 19 | 126 | 4.8 | 8.0 | 0.00 | 0.00 | 0.00 | 53 | 1010.1 |
| 20260505013050 | 20 | 134 | 6.4 | 12.9 | 0.00 | 0.00 | 0.00 | 51 | 1010.1 |
| 20260505011550 | 20 | 136 | 6.4 | 12.9 | 0.00 | 0.00 | 0.00 | 51 | 1009.9 |
| 20260505010050 | 20 | 136 | 3.2 | 9.7 | 0.00 | 0.00 | 0.00 | 49 | 1009.8 |
| 20260505004550 | 21 | 132 | 1.6 | 9.7 | 0.00 | 0.00 | 0.00 | 48 | 1009.6 |
| 20260505004458 | 21 | 135 | 8.0 | 12.9 | 0.00 | 0.00 | 0.00 | 48 | 1009.6 |
| 20260505003050 | 21 | 137 | 0.0 | 8.0 | 0.00 | 0.00 | 0.00 | 48 | 1009.6 |
| 20260505001550 | 21 | 147 | 0.0 | 8.0 | 0.00 | 0.00 | 0.00 | 48 | 1009.6 |
| 20260505000050 | 21 | 136 | 0.0 | 14.5 | 0.00 | 0.00 | 0.00 | 47 | 1009.6 |
| 20260504234550 | 22 | 161 | 1.6 | 14.5 | 0.00 | 0.00 | 0.00 | 45 | 1009.5 |
| 20260504234504 | 22 | 140 | 0.0 | 8.0 | 0.00 | 0.00 | 0.00 | 45 | 1009.5 |
| 20260504233050 | 22 | 139 | 6.4 | 17.7 | 0.00 | 0.00 | 0.00 | 44 | 1009.3 |
| 20260504231550 | 22 | 154 | 6.4 | 17.7 | 0.00 | 0.00 | 0.00 | 43 | 1009.4 |
| 20260504230020 | 23 | 148 | 0.0 | 20.9 | 0.00 | 0.00 | 0.00 | 43 | 1009.4 |
| 20260504224503 | 23 | 135 | 6.4 | 17.7 | 0.00 | 0.00 | 0.00 | 42 | 1009.3 |
| 20260504224450 | 23 | 205 | 1.6 | 20.9 | 0.00 | 0.00 | 0.00 | 41 | 1009.3 |
| 20260504222950 | 23 | 123 | 0.0 | 20.9 | 0.00 | 0.00 | 0.00 | 41 | 1009.3 |
| 20260504221450 | 23 | 155 | 3.2 | 20.9 | 0.00 | 0.00 | 0.00 | 40 | 1009.1 |
| 20260504215950 | 23 | 173 | 0.0 | 24.1 | 0.00 | 0.00 | 0.00 | 39 | 1009.0 |
| 20260504214503 | 23 | 121 | 3.2 | 22.5 | 0.00 | 0.00 | 0.00 | 39 | 1009.2 |
| 20260504214450 | 23 | 104 | 3.2 | 24.1 | 0.00 | 0.00 | 0.00 | 39 | 1009.1 |
| 20260504212950 | 23 | 167 | 11.3 | 22.5 | 0.00 | 0.00 | 0.00 | 39 | 1009.2 |
| 20260504211450 | 23 | 123 | 12.9 | 22.5 | 0.00 | 0.00 | 0.00 | 38 | 1009.3 |
| 20260504205949 | 23 | 138 | 8.0 | 22.5 | 0.00 | 0.00 | 0.00 | 38 | 1009.3 |
| 20260504204459 | 23 | 148 | 8.0 | 16.1 | 0.00 | 0.00 | 0.00 | 38 | 1009.5 |
| 20260504204449 | 24 | 142 | 11.3 | 22.5 | 0.00 | 0.00 | 0.00 | 38 | 1009.3 |
| 20260504202949 | 23 | 150 | 9.7 | 20.9 | 0.00 | 0.00 | 0.00 | 39 | 1009.6 |
| 20260504201449 | 24 | 306 | 3.2 | 20.9 | 0.00 | 0.00 | 0.00 | 39 | 1009.7 |
| 20260504195919 | 23 | 144 | 9.7 | 24.1 | 0.00 | 0.00 | 0.00 | 39 | 1009.8 |
| 20260504194446 | 23 | 76 | 6.4 | 14.5 | 0.00 | 0.00 | 0.00 | 39 | 1010.1 |
| 20260504194419 | 23 | 150 | 9.7 | 24.1 | 0.00 | 0.00 | 0.00 | 40 | 1010.1 |
| 20260504192920 | 23 | 136 | 11.3 | 20.9 | 0.00 | 0.00 | 0.00 | 39 | 1010.3 |
| 20260504191419 | 23 | 128 | 3.2 | 20.9 | 0.00 | 0.00 | 0.00 | 39 | 1010.6 |
| 20260504185919 | 23 | 142 | 1.6 | 17.7 | 0.00 | 0.00 | 0.00 | 40 | 1010.7 |
| 20260504184501 | 23 | 161 | 9.7 | 16.1 | 0.00 | 0.00 | 0.00 | 38 | 1010.9 |
| 20260504184419 | 23 | 124 | 12.9 | 17.7 | 0.00 | 0.00 | 0.00 | 38 | 1010.9 |
| 20260504181419 | 23 | 336 | 1.6 | 24.1 | 0.00 | 0.00 | 0.00 | 41 | 1011.3 |
| 20260504175919 | 22 | 175 | 3.2 | 24.1 | 0.00 | 0.00 | 0.00 | 39 | 1011.4 |
| 20260504174459 | 22 | 158 | 9.7 | 24.1 | 0.00 | 0.00 | 0.00 | 40 | 1011.6 |
| 20260504174419 | 22 | 124 | 14.5 | 24.1 | 0.00 | 0.00 | 0.00 | 40 | 1011.6 |
| 20260504172919 | 22 | 197 | 1.6 | 12.9 | 0.00 | 0.00 | 0.00 | 40 | 1012.0 |